EW0435 Weather Reports


Display with metric or nautical units.
time (UTC)temp
F
wind
direction
speed
MPH
gust
MPH
rain 1hr
in
rain 24hr
in
rain mn
in
humidity
%
barometer
mb
20260509093004 47 256 0.0 2.0 0.00 0.00 0.00 58 1022.7
20260509092504 47 263 0.0 1.0 0.00 0.00 0.00 58 1022.7
20260509092004 46 253 0.0 1.0 0.00 0.00 0.00 59 1022.7
20260509091504 46 251 0.0 0.0 0.00 0.00 0.00 58 1022.7
20260509091005 47 251 0.0 0.0 0.00 0.00 0.00 56 1022.7
20260509090004 48 248 0.0 0.0 0.00 0.00 0.00 54 1022.6
20260509085004 49 262 0.0 2.0 0.00 0.00 0.00 52 1022.6
20260509084504 49 270 0.0 2.0 0.00 0.00 0.00 51 1022.5
20260509084004 49 271 0.0 3.0 0.00 0.00 0.00 51 1022.5
20260509083504 49 270 1.0 3.0 0.00 0.00 0.00 50 1022.5
20260509083004 49 275 1.0 5.0 0.00 0.00 0.00 50 1022.5
20260509082504 50 280 1.0 3.0 0.00 0.00 0.00 50 1022.5
20260509082004 49 283 1.0 3.0 0.00 0.00 0.00 50 1022.5
20260509081004 49 302 0.0 2.0 0.00 0.00 0.00 51 1022.5
20260509080504 50 300 0.0 3.0 0.00 0.00 0.00 49 1022.4
20260509080005 50 308 2.0 6.0 0.00 0.00 0.00 48 1022.4
20260509075504 50 295 2.0 5.0 0.00 0.00 0.00 49 1022.3
20260509075004 50 285 2.0 7.0 0.00 0.00 0.00 50 1022.3
20260509074504 49 284 1.0 3.0 0.00 0.00 0.00 51 1022.3
20260509074004 50 290 0.0 2.0 0.00 0.00 0.00 49 1022.3
20260509073005 49 283 1.0 3.0 0.00 0.00 0.00 49 1022.1
20260509072504 50 286 1.0 3.0 0.00 0.00 0.00 47 1022.1
20260509072005 50 270 1.0 3.0 0.00 0.00 0.00 47 1022.0
20260509071504 50 282 1.0 3.0 0.00 0.00 0.00 46 1022.1
20260509071004 51 282 1.0 3.0 0.00 0.00 0.00 45 1022.1
20260509070504 51 280 1.0 3.0 0.00 0.00 0.00 44 1022.0
20260509070004 50 273 1.0 2.0 0.00 0.00 0.00 45 1022.0
20260509065504 50 267 1.0 2.0 0.00 0.00 0.00 45 1022.0
20260509065004 50 280 0.0 2.0 0.00 0.00 0.00 43 1021.9
20260509064504 51 271 0.0 3.0 0.00 0.00 0.00 43 1021.9
20260509064004 51 268 1.0 7.0 0.00 0.00 0.00 42 1021.9
20260509063505 51 270 0.0 1.0 0.00 0.00 0.00 42 1021.9
20260509063004 51 262 0.0 2.0 0.00 0.00 0.00 42 1021.9
20260509062504 51 265 0.0 2.0 0.00 0.00 0.00 42 1021.9
20260509061504 50 278 1.0 3.0 0.00 0.00 0.00 43 1021.9
20260509061005 50 273 1.0 3.0 0.00 0.00 0.00 43 1021.9
20260509060504 50 271 0.0 2.0 0.00 0.00 0.00 42 1021.8
20260509060004 51 264 0.0 3.0 0.00 0.00 0.00 41 1021.8
20260509055504 51 275 1.0 3.0 0.00 0.00 0.00 41 1021.8
20260509054503 51 267 0.0 2.0 0.00 0.00 0.00 40 1021.7
20260509053504 52 270 0.0 2.0 0.00 0.00 0.00 39 1021.6
20260509053004 52 270 0.0 2.0 0.00 0.00 0.00 38 1021.6
20260509052504 52 276 0.0 2.0 0.00 0.00 0.00 38 1021.6
20260509052004 52 272 1.0 2.0 0.00 0.00 0.00 38 1021.5
20260509051504 52 277 0.0 1.0 0.00 0.00 0.00 38 1021.4
20260509051004 53 278 1.0 2.0 0.00 0.00 0.00 38 1021.4
20260509050004 53 269 0.0 1.0 0.00 0.00 0.00 38 1021.4
20260509045504 53 267 0.0 1.0 0.00 0.00 0.00 38 1021.4
20260509045004 52 279 0.0 0.0 0.00 0.00 0.00 38 1021.3
20260509044504 52 269 0.0 1.0 0.00 0.00 0.00 39 1021.4
20260509044004 52 266 0.0 2.0 0.00 0.00 0.00 39 1021.4
20260509043504 51 266 0.0 0.0 0.00 0.00 0.00 40 1021.4
20260509043004 51 264 0.0 1.0 0.00 0.00 0.00 41 1021.4
20260509042504 51 256 0.0 1.0 0.00 0.00 0.00 41 1021.3
20260509042004 52 258 0.0 0.0 0.00 0.00 0.00 41 1021.3
20260509041504 52 278 0.0 0.0 0.00 0.00 0.00 40 1021.3
20260509041004 53 278 0.0 0.0 0.00 0.00 0.00 39 1021.3
20260509040505 53 278 0.0 0.0 0.00 0.00 0.00 38 1021.3
20260509040004 52 299 0.0 0.0 0.00 0.00 0.00 38 1021.3
20260509035504 52 313 0.0 0.0 0.00 0.00 0.00 38 1021.3
20260509035004 52 313 0.0 0.0 0.00 0.00 0.00 39 1021.2
20260509034504 52 313 0.0 0.0 0.00 0.00 0.00 39 1021.1
20260509034005 53 313 0.0 0.0 0.00 0.00 0.00 39 1021.1
20260509033504 53 315 0.0 0.0 0.00 0.00 0.00 39 1021.0
20260509033004 53 316 0.0 0.0 0.00 0.00 0.00 39 1021.0
20260509032005 54 324 0.0 0.0 0.00 0.00 0.00 40 1020.9
20260509031004 54 324 0.0 0.0 0.00 0.00 0.00 43 1020.8
20260509030004 54 324 0.0 0.0 0.00 0.00 0.00 48 1020.6
20260509025504 54 329 0.0 0.0 0.00 0.00 0.00 50 1020.5
20260509025004 55 329 0.0 0.0 0.00 0.00 0.00 52 1020.5
20260509024504 56 325 0.0 0.0 0.00 0.00 0.00 52 1020.4
20260509024004 57 334 0.0 0.0 0.00 0.00 0.00 50 1020.3
20260509023504 58 344 0.0 0.0 0.00 0.00 0.00 47 1020.3
20260509023004 59 345 0.0 0.0 0.00 0.00 0.00 47 1020.3
20260509022504 60 345 0.0 0.0 0.00 0.00 0.00 47 1020.2
20260509022005 61 346 0.0 0.0 0.00 0.00 0.00 44 1020.2
20260509021504 61 343 0.0 0.0 0.00 0.00 0.00 43 1020.2
20260509021003 62 339 0.0 0.0 0.00 0.00 0.00 42 1020.1
20260509020504 63 345 0.0 0.0 0.00 0.00 0.00 42 1020.1
20260509020004 63 342 0.0 0.0 0.00 0.00 0.00 42 1020.1
20260509015504 63 342 0.0 0.0 0.00 0.00 0.00 41 1020.1
20260509015004 64 338 0.0 0.0 0.00 0.00 0.00 41 1020.1
20260509014504 64 335 0.0 0.0 0.00 0.00 0.00 40 1020.1
20260509014004 64 326 0.0 0.0 0.00 0.00 0.00 38 1020.1
20260509013504 64 342 0.0 0.0 0.00 0.00 0.00 37 1020.0
20260509012004 64 329 0.0 1.0 0.00 0.00 0.00 37 1020.1
20260509011504 64 346 0.0 0.0 0.00 0.00 0.00 35 1020.1
20260509011005 64 317 1.0 3.0 0.00 0.00 0.00 34 1020.2
20260509010504 65 340 0.0 1.0 0.00 0.00 0.00 35 1020.2
20260509010004 65 339 0.0 1.0 0.00 0.00 0.00 35 1020.2
20260509004504 65 344 0.0 2.0 0.00 0.00 0.00 36 1020.2
20260509004004 65 334 0.0 1.0 0.00 0.00 0.00 37 1020.2
20260509003503 64 330 0.0 2.0 0.00 0.00 0.00 38 1020.2
20260509003004 64 350 0.0 0.0 0.00 0.00 0.00 38 1020.2
20260509002504 64 2 0.0 3.0 0.00 0.00 0.00 37 1020.3
20260509002004 64 350 0.0 2.0 0.00 0.00 0.00 39 1020.2
20260509001004 64 350 0.0 0.0 0.00 0.00 0.00 38 1020.3
20260509000504 64 347 0.0 0.0 0.00 0.00 0.00 38 1020.2
20260509000004 64 358 0.0 0.0 0.00 0.00 0.00 37 1020.2
20260508235504 64 339 0.0 0.0 0.00 0.00 0.00 36 1020.3
20260508234504 64 345 0.0 0.0 0.00 0.00 0.00 38 1020.3
20260508234004 64 346 0.0 0.0 0.00 0.00 0.00 40 1020.3
20260508233504 65 346 0.0 1.0 0.00 0.00 0.00 36 1020.2
20260508233004 65 342 0.0 1.0 0.00 0.00 0.00 36 1020.2
20260508232503 66 345 0.0 0.0 0.00 0.00 0.00 35 1020.2
20260508232004 66 344 0.0 0.0 0.00 0.00 0.00 35 1020.2
20260508231504 67 336 0.0 0.0 0.00 0.00 0.00 29 1020.1
20260508230504 67 353 0.0 0.0 0.00 0.00 0.00 31 1020.2
20260508230004 67 341 0.0 0.0 0.00 0.00 0.00 30 1020.1
20260508225503 67 10 0.0 0.0 0.00 0.00 0.00 33 1020.2
20260508225004 66 335 0.0 0.0 0.00 0.00 0.00 33 1020.1
20260508224504 66 337 0.0 1.0 0.00 0.00 0.00 33 1020.2
20260508224004 66 348 0.0 0.0 0.00 0.00 0.00 31 1020.1
20260508223504 66 325 0.0 0.0 0.00 0.00 0.00 31 1020.1
20260508223004 66 341 0.0 0.0 0.00 0.00 0.00 29 1020.2
20260508222504 67 335 0.0 0.0 0.00 0.00 0.00 30 1020.2
20260508222004 66 333 0.0 0.0 0.00 0.00 0.00 33 1020.2
20260508221004 65 336 0.0 0.0 0.00 0.00 0.00 34 1020.0
20260508220504 65 335 0.0 1.0 0.00 0.00 0.00 35 1020.1
20260508220004 65 341 0.0 0.0 0.00 0.00 0.00 34 1020.2
20260508215504 65 341 0.0 0.0 0.00 0.00 0.00 34 1020.2
20260508215004 65 317 0.0 0.0 0.00 0.00 0.00 31 1020.3
20260508214504 66 312 0.0 0.0 0.00 0.00 0.00 30 1020.3
20260508214004 66 343 0.0 0.0 0.00 0.00 0.00 32 1020.3
20260508213504 66 338 0.0 0.0 0.00 0.00 0.00 33 1020.2
20260508213004 66 312 0.0 0.0 0.00 0.00 0.00 32 1020.2
20260508212503 66 296 0.0 1.0 0.00 0.00 0.00 29 1020.1
20260508212004 66 343 0.0 3.0 0.00 0.00 0.00 30 1020.2
20260508211504 66 313 0.0 1.0 0.00 0.00 0.00 36 1020.3
20260508210504 64 326 0.0 2.0 0.00 0.00 0.00 35 1020.4
20260508210004 64 328 0.0 1.0 0.00 0.00 0.00 33 1020.3
20260508205503 64 336 0.0 2.0 0.00 0.00 0.00 35 1020.4
20260508205004 63 323 0.0 1.0 0.00 0.00 0.00 32 1020.4
20260508204503 63 318 0.0 3.0 0.00 0.00 0.00 32 1020.4
20260508204005 62 299 0.0 1.0 0.00 0.00 0.00 27 1020.4
20260508203504 62 280 0.0 0.0 0.00 0.00 0.00 27 1020.3
20260508202504 63 279 0.0 3.0 0.00 0.00 0.00 27 1020.3
20260508202004 64 279 0.0 1.0 0.00 0.00 0.00 29 1020.3
20260508201504 64 324 0.0 0.0 0.00 0.00 0.00 36 1020.4
20260508201004 64 343 0.0 0.0 0.00 0.00 0.00 34 1020.3
20260508200004 64 320 0.0 0.0 0.00 0.00 0.00 33 1020.2
20260508195504 63 332 0.0 0.0 0.00 0.00 0.00 33 1020.2
20260508195003 63 316 0.0 0.0 0.00 0.00 0.00 31 1020.2
20260508194504 62 305 0.0 0.0 0.00 0.00 0.00 29 1020.2
20260508194004 61 288 0.0 0.0 0.00 0.00 0.00 31 1020.2
20260508193503 61 276 0.0 1.0 0.00 0.00 0.00 29 1020.2
20260508193004 61 287 0.0 1.0 0.00 0.00 0.00 29 1020.2
20260508192004 61 292 0.0 1.0 0.00 0.00 0.00 28 1020.2
20260508191504 62 273 0.0 1.0 0.00 0.00 0.00 30 1020.3
20260508191004 61 312 0.0 1.0 0.00 0.00 0.00 29 1020.2
20260508190504 61 275 1.0 2.0 0.00 0.00 0.00 26 1020.3
20260508185503 62 289 0.0 3.0 0.00 0.00 0.00 28 1020.3
20260508185004 61 304 0.0 2.0 0.00 0.00 0.00 26 1020.3
20260508184504 61 285 1.0 2.0 0.00 0.00 0.00 26 1020.2
20260508184004 61 290 0.0 3.0 0.00 0.00 0.00 27 1020.3
20260508183504 61 314 0.0 2.0 0.00 0.00 0.00 27 1020.2
20260508182004 60 287 1.0 3.0 0.00 0.00 0.00 25 1020.3
20260508181004 61 274 0.0 3.0 0.00 0.00 0.00 27 1020.3
20260508180004 61 274 1.0 3.0 0.00 0.00 0.00 24 1020.2
20260508174504 62 261 1.0 3.0 0.00 0.00 0.00 24 1020.1
20260508174004 62 287 1.0 3.0 0.00 0.00 0.00 25 1020.0
20260508173004 62 289 0.0 0.0 0.00 0.00 0.00 28 1020.0
20260508172504 62 291 0.0 1.0 0.00 0.00 0.00 27 1020.0
20260508172005 62 281 0.0 1.0 0.00 0.00 0.00 24 1020.0
20260508171503 62 249 0.0 2.0 0.00 0.00 0.00 22 1020.0
20260508171005 62 257 0.0 0.0 0.00 0.00 0.00 30 1020.0
20260508170504 63 321 0.0 0.0 0.00 0.00 0.00 29 1020.0
20260508170004 62 320 0.0 0.0 0.00 0.00 0.00 31 1019.9
20260508165504 62 290 0.0 2.0 0.00 0.00 0.00 29 1019.9
20260508165004 62 246 0.0 1.0 0.00 0.00 0.00 29 1019.9
20260508164504 62 327 0.0 1.0 0.00 0.00 0.00 36 1019.9
20260508164004 61 308 0.0 0.0 0.00 0.00 0.00 33 1019.9
20260508163504 61 289 0.0 0.0 0.00 0.00 0.00 31 1020.0
20260508163004 61 320 0.0 0.0 0.00 0.00 0.00 32 1019.9
20260508161004 60 269 0.0 0.0 0.00 0.00 0.00 31 1019.8
20260508160504 60 241 0.0 0.0 0.00 0.00 0.00 32 1019.9
20260508160004 60 246 0.0 0.0 0.00 0.00 0.00 32 1019.9
20260508155503 60 317 0.0 0.0 0.00 0.00 0.00 32 1019.9
20260508155004 59 317 0.0 0.0 0.00 0.00 0.00 35 1019.9
20260508154504 58 320 0.0 1.0 0.00 0.00 0.00 34 1019.9
20260508154004 58 289 0.0 0.0 0.00 0.00 0.00 35 1019.9
20260508153504 58 287 0.0 0.0 0.00 0.00 0.00 36 1019.9
20260508153004 57 284 0.0 1.0 0.00 0.00 0.00 37 1019.9
20260508152504 57 280 0.0 0.0 0.00 0.00 0.00 37 1019.9
20260508152005 57 292 0.0 0.0 0.00 0.00 0.00 35 1019.8
20260508151504 57 284 0.0 1.0 0.00 0.00 0.00 36 1019.8
20260508151004 57 281 0.0 1.0 0.00 0.00 0.00 36 1019.8
20260508150504 57 262 0.0 2.0 0.00 0.00 0.00 35 1019.8
20260508150004 57 268 1.0 2.0 0.00 0.00 0.00 35 1019.8
20260508145004 56 272 1.0 2.0 0.00 0.00 0.00 40 1019.8
20260508144504 56 273 0.0 1.0 0.00 0.00 0.00 43 1019.8
20260508144004 55 274 0.0 1.0 0.00 0.00 0.00 49 1019.7
20260508143504 55 257 0.0 0.0 0.00 0.00 0.00 50 1019.7
20260508143004 54 249 0.0 0.0 0.00 0.00 0.00 52 1019.7
20260508142504 54 240 0.0 0.0 0.00 0.00 0.00 54 1019.7
20260508142004 54 230 0.0 2.0 0.00 0.00 0.00 55 1019.7
20260508141504 53 231 0.0 2.0 0.00 0.00 0.00 58 1019.7
20260508141004 53 234 0.0 0.0 0.00 0.00 0.00 60 1019.7
20260508140504 53 222 0.0 0.0 0.00 0.00 0.00 63 1019.7
20260508140004 52 225 0.0 0.0 0.00 0.00 0.00 65 1019.7
20260508135503 52 226 0.0 0.0 0.00 0.00 0.00 66 1019.7
20260508135004 51 217 0.0 0.0 0.00 0.00 0.00 69 1019.7
20260508134504 51 217 0.0 0.0 0.00 0.00 0.00 68 1019.7
20260508134004 51 217 0.0 0.0 0.00 0.00 0.00 68 1019.6
20260508133503 50 218 0.0 0.0 0.00 0.00 0.00 69 1019.6
20260508133004 50 225 0.0 0.0 0.00 0.00 0.00 70 1019.6
20260508132504 49 208 0.0 0.0 0.00 0.00 0.00 71 1019.6
20260508132004 49 207 0.0 0.0 0.00 0.00 0.00 71 1019.6
20260508131503 49 206 0.0 0.0 0.00 0.00 0.00 72 1019.5
20260508131003 49 212 0.0 0.0 0.00 0.00 0.00 72 1019.5
20260508130504 48 224 0.0 0.0 0.00 0.00 0.00 72 1019.5
20260508125504 47 239 0.0 0.0 0.00 0.00 0.00 75 1019.4
20260508125004 47 239 0.0 0.0 0.00 0.00 0.00 76 1019.3
20260508124503 47 239 0.0 0.0 0.00 0.00 0.00 76 1019.4
20260508124004 47 239 0.0 0.0 0.00 0.00 0.00 77 1019.4
20260508123504 47 239 0.0 0.0 0.00 0.00 0.00 76 1019.4
20260508122504 47 239 0.0 0.0 0.00 0.00 0.00 75 1019.4
20260508121504 48 239 0.0 0.0 0.00 0.00 0.00 74 1019.4
20260508121003 48 239 0.0 0.0 0.00 0.00 0.00 74 1019.4
20260508120504 48 239 0.0 0.0 0.00 0.00 0.00 76 1019.3
20260508120004 46 239 0.0 0.0 0.00 0.00 0.00 78 1019.4
20260508115504 45 240 0.0 0.0 0.00 0.00 0.00 78 1019.4
20260508114004 46 240 0.0 0.0 0.00 0.00 0.00 74 1019.4
20260508113504 47 240 0.0 0.0 0.00 0.00 0.00 72 1019.4
20260508113005 48 240 0.0 0.0 0.00 0.00 0.00 71 1019.5
20260508112503 49 240 0.0 0.0 0.00 0.00 0.00 71 1019.5
20260508112004 49 240 0.0 0.0 0.00 0.00 0.00 71 1019.5
20260508111504 49 240 0.0 0.0 0.00 0.00 0.00 71 1019.5
20260508111004 49 240 0.0 0.0 0.00 0.00 0.00 71 1019.5
20260508110504 49 240 0.0 0.0 0.00 0.00 0.00 71 1019.5
20260508110004 49 240 0.0 0.0 0.00 0.00 0.00 70 1019.5
20260508105504 49 241 0.0 0.0 0.00 0.00 0.00 71 1019.4
20260508105003 48 241 0.0 0.0 0.00 0.00 0.00 71 1019.4
20260508104504 48 241 0.0 0.0 0.00 0.00 0.00 71 1019.4
20260508104004 49 241 0.0 0.0 0.00 0.00 0.00 70 1019.4
20260508103503 49 241 0.0 0.0 0.00 0.00 0.00 70 1019.4
20260508103004 49 241 0.0 0.0 0.00 0.00 0.00 69 1019.5
20260508102504 50 241 0.0 0.0 0.00 0.00 0.00 67 1019.5
20260508102004 50 241 0.0 0.0 0.00 0.00 0.00 67 1019.5
20260508101504 50 242 0.0 0.0 0.00 0.00 0.00 67 1019.5
20260508101004 50 242 0.0 0.0 0.00 0.00 0.00 67 1019.5
20260508100004 50 232 0.0 0.0 0.00 0.00 0.00 68 1019.4
20260508094503 49 254 0.0 0.0 0.00 0.00 0.00 69 1019.4
20260508094003 49 254 0.0 0.0 0.00 0.00 0.00 68 1019.4